Overview Statistics Trail Chart Weather Telemetry Raw packets
 

This is the latest recevied weather packets stored in our database for station/object N3TJJ-2. If no packets are shown the sender has not sent any weather packets the latest 10 day(s).

<< 20 21 22 23 24 25 26 >>
Time Temp. Humidity Pressure Rain* Wind** Luminosity Snow
1788494090 23.89° C 55% 1014.2 hPa 0 mm - - -
1788493730 23.89° C 59% 1014.3 hPa 0 mm - - -
1788493374 23.89° C 60% 1014.3 hPa 0 mm - - -
1788493011 24.44° C 64% 1014.5 hPa 0 mm - - -
1788492670 25° C 67% 1014.7 hPa 0 mm - - -
1788492290 25° C 68% 1014.5 hPa 0 mm - - -
1788491940 25° C 69% 1014.4 hPa 0 mm - - -
1788491572 25° C 69% 1014.8 hPa 0 mm - - -
1788491211 25° C 68% 1015.1 hPa 0 mm - - -
1788490883 25° C 68% 1015 hPa 0 mm - - -
1788490489 25° C 69% 1014.9 hPa 0 mm - - -
1788490130 24.44° C 67% 1015 hPa 0 mm - - -
1788489781 25° C 69% 1014.9 hPa 0 mm - - -
1788489427 25° C 69% 1014.9 hPa 0 mm - - -
1788489065 25° C 69% 1014.8 hPa 0 mm - - -
1788488690 25° C 70% 1014.8 hPa 0 mm - - -
1788488361 25° C 70% 1014.8 hPa 0 mm - - -
1788487973 25° C 69% 1014.8 hPa 0 mm - - -
1788487612 24.44° C 68% 1014.7 hPa 0 mm - - -
1788487273 24.44° C 68% 1014.7 hPa 0 mm - - -
1788486890 24.44° C 68% 1014.6 hPa 0 mm - - -
1788486542 24.44° C 68% 1014.3 hPa 0 mm - - -
1788486174 24.44° C 69% 1014.3 hPa 0 mm - - -
1788485810 24.44° C 70% 1014.5 hPa 0 mm - - -
1788485484 24.44° C 70% 1014.6 hPa 0 mm - - -

* Rain latest hour (hover to see other rain measurements)
** Current wind speed in m/s (hover to see current wind gust speed)